Location: Newark
(43.4306°N, 0.3089°E)
Time: 12:14:34
(UTC+00:00)

Vanguard 3 - Pass Details

Date: 31 August 2019
Orbit: 508 x 3263 km, 33.4° (Epoch: 14 September)

Event Time Altitude Azimuth Distance (km) Brightness Sun altitude
Rises 18:32:06 0° 269° (W) 4,786 13.2 -0.1°
Reaches altitude 10° 18:36:38 10° 256° (WSW) 3,273 11.5 -0.9°
Maximum altitude 18:42:13 22° 209° (SSW) 1,902 9.3 -1.8°
Drops below altitude 10° 18:46:09 10° 159° (SSE) 2,215 9.1 -2.5°
Sets 18:48:34 0° 142° (SE) 2,913 9.5 -3.0°
